Wind_Speed
50 52 49 45 45 48 48 49 53 53 55 47 42 48 44 37 18 13 19 19 21 23 29 27 32 35 34 33 31 35 32 32 26 25 24 22 19 17 16 14 19 23 25
52 51 51 53 49 42 48 50 52 53 57 53 47 45 44 39 13 38 48 31 28 26 26 33 33 33 40 39 36 41 38 38 31 31 29 27 24 21 19 20 21 22 25
55 53 47 53 48 46 48 48 52 53 58 57 52 56 54 51 43 68 58 47 50 35 32 36 36 33 34 42 43 43 45 41 39 36 34 29 26 25 25 25 24 29 32
55 51 48 48 45 39 41 49 53 53 59 60 60 61 62 71 56 62 73 74 72 59 50 44 38 40 36 42 45 46 50 47 43 41 39 37 31 30 32 33 33 36 34
54 49 46 44 44 39 38 47 53 53 59 63 67 71 68 72 77 64 61 66 68 76 62 49 41 45 45 38 44 48 55 52 50 48 43 40 38 37 34 36 38 32 29
48 47 41 42 39 35 36 44 51 54 59 64 70 79 77 73 77 72 65 67 71 71 66 58 58 42 49 42 43 49 54 56 52 50 49 46 42 39 41 41 39 32 29
40 38 38 35 31 30 34 41 46 47 54 59 69 81 81 74 78 79 74 73 74 81 75 64 59 51 47 46 45 46 53 57 58 54 53 50 45 45 44 41 41 37 31
36 33 30 26 27 29 35 37 40 43 54 58 70 80 83 78 76 70 72 77 78 78 76 74 67 66 58 37 52 55 53 53 52 54 56 53 49 47 49 45 48 43 38
29 25 21 24 24 29 36 34 39 43 49 57 68 79 86 85 87 69 66 71 69 61 60 68 64 60 48 48 46 53 58 54 50 48 52 54 53 57 57 50 47 50 49
22 20 18 20 23 23 31 35 40 42 46 55 68 78 85 93 91 92 73 76 74 63 67 68 71 57 52 50 52 59 59 59 59 59 56 53 56 59 58 52 51 49 48
24 19 19 23 27 29 31 35 36 39 45 52 58 73 84 90 91 95 95 85 88 77 78 73 72 74 67 58 58 60 59 58 60 62 65 66 63 62 58 53 48 51 51
31 27 27 28 26 19 24 22 25 37 39 37 52 54 67 76 86 93 92 87 83 85 89 80 80 74 68 69 67 66 69 65 63 63 65 66 69 69 64 62 56 55 53
34 34 33 28 29 22 23 29 17 24 22 32 40 41 46 59 72 83 90 88 87 87 93 86 76 78 71 71 73 67 71 74 72 69 69 68 69 69 71 68 66 65 60
44 37 37 33 37 30 41 43 31 23 25 31 33 28 20 33 50 67 77 83 85 89 88 86 83 87 89 82 73 70 72 77 79 72 71 73 74 74 76 71 70 71 69
46 42 44 42 40 47 47 43 41 36 34 38 37 26 19 19 29 42 56 69 86 91 99 98 95 95 96 89 91 87 84 80 76 73 74 75 80 80 79 75 71 68 68
49 51 50 50 50 51 50 48 45 45 40 39 40 35 29 22 26 32 40 54 69 82 96 97 94 93 92 89 87 87 88 85 84 89 86 81 78 80 79 77 76 71 70
49 57 54 55 53 46 47 48 43 43 42 39 37 34 39 35 29 30 33 42 57 68 73 75 76 76 75 75 75 76 72 71 76 77 76 79 79 76 79 78 81 85 80
42 54 63 58 58 54 55 45 54 51 48 46 46 42 39 44 43 38 39 41 41 52 67 74 74 72 75 73 73 74 74 75 72 74 76 76 81 81 79 83 84 81 84
43 45 54 60 60 60 58 57 56 57 57 53 53 52 53 48 48 46 45 47 50 52 59 62 66 67 73 76 74 74 75 78 81 80 82 82 83 85 84 85 86 88 91
38 37 46 50 53 61 64 63 59 62 62 61 60 58 58 56 55 53 54 54 55 59 65 67 68 71 72 75 75 77 80 81 83 85 88 90 91 93 93 93 94 94 96
42 38 37 37 40 45 54 61 61 67 70 69 70 67 68 64 65 63 63 65 66 65 66 70 74 72 72 75 78 79 81 84 87 88 90 92 92 94 96 97 99 99 101
48 48 50 50 49 48 49 50 54 64 70 74 75 75 77 76 72 76 77 74 73 74 75 76 75 79 83 84 86 86 88 89 89 92 93 95 95 96 99 100 100 101 103
54 54 52 53 54 58 58 55 55 55 56 62 70 77 81 82 85 84 84 81 83 83 82 81 81 87 89 90 91 94 98 97 97 99 100 102 104 105 103 103 105 107 108
47 49 53 59 60 61 61 60 60 58 57 59 64 64 66 72 77 80 87 91 89 92 95 91 91 91 93 94 97 98 98 102 106 107 107 106 107 108 108 108 109 110 111
54 56 54 56 59 60 64 68 71 72 72 69 68 71 71 69 71 73 76 81 88 92 93 96 94 93 97 100 101 102 104 110 113 114 114 115 115 115 116 118 120 119 119
57 54 53 57 59 59 54 56 59 63 69 75 80 83 82 81 79 81 82 82 85 90 92 97 102 102 103 106 110 111 114 117 117 118 121 123 124 127 128 127 126 127 129
Wind_Direction
288 287 281 269 263 260 253 243 238 231 225 221 220 212 200 213 210 245 253 249 256 267 269 260 247 241 234 232 222 215 217 219 218 227 230 236 239 256 278 300 310 308 311
284 280 278 273 269 259 253 243 234 227 225 216 209 204 203 206 199 253 257 253 248 268 274 267 261 251 237 233 237 224 227 226 221 234 234 245 245 245 282 292 305 319 328
284 281 276 271 270 262 250 237 232 221 220 217 203 199 199 210 227 244 236 250 246 242 256 260 269 257 246 233 234 235 231 230 233 236 239 248 251 259 273 285 295 301 314
284 282 276 273 271 259 244 234 226 220 215 212 202 194 196 200 225 216 226 232 244 245 254 249 263 267 252 237 235 241 235 234 237 239 242 250 260 266 270 276 284 294 309
285 281 276 269 265 255 244 230 224 219 212 209 204 195 200 206 204 232 223 229 232 240 241 243 255 267 257 249 245 237 237 239 239 242 250 256 262 268 275 280 284 289 305
281 277 270 266 260 253 245 226 219 216 212 208 204 200 203 209 213 213 224 217 225 232 237 241 245 252 257 244 243 243 239 240 244 248 253 260 266 270 276 276 279 282 283
275 270 264 258 249 241 227 219 219 215 215 211 204 204 206 209 217 220 221 228 225 231 238 242 245 245 244 244 244 247 247 246 247 254 259 263 265 270 273 273 270 273 272
266 260 252 241 231 228 223 213 212 211 206 211 206 207 213 215 218 224 232 230 228 228 236 247 245 238 237 249 245 244 246 249 251 258 257 257 258 262 264 269 272 267 270
251 246 239 231 224 229 215 212 210 209 208 210 205 211 214 215 213 222 218 216 218 231 231 232 233 229 230 231 252 247 244 243 243 248 253 255 256 258 264 268 266 267 268
229 232 227 222 212 204 203 203 211 213 213 213 211 214 218 217 218 217 215 220 224 224 225 227 224 218 232 238 246 244 244 243 246 244 248 248 252 257 261 262 265 264 264
194 198 189 189 188 199 204 209 215 221 221 220 218 220 221 224 223 222 223 226 221 222 223 231 228 224 226 234 240 241 241 241 244 245 247 251 253 256 258 261 260 260 262
200 187 179 176 183 194 204 202 216 221 230 229 231 230 231 231 229 224 227 226 224 223 225 230 232 223 225 233 246 243 241 241 242 246 250 253 254 256 258 256 259 261 259
190 186 182 180 180 166 172 175 150 188 224 218 228 232 237 234 230 231 229 225 222 224 222 226 228 226 235 241 247 246 244 246 247 249 251 254 256 257 259 259 260 261 259
190 188 180 180 175 183 187 178 195 212 227 229 241 250 254 250 239 231 230 227 223 219 221 224 228 235 241 244 245 247 247 247 250 250 254 257 258 257 259 262 263 260 258
198 193 190 188 189 196 205 212 213 207 221 241 239 241 242 246 243 232 227 228 226 222 224 224 229 236 242 245 244 248 250 252 253 250 256 260 262 260 260 258 259 257 258
202 204 205 202 197 202 205 210 217 219 232 237 245 248 240 237 238 241 232 228 227 226 227 231 236 239 243 247 249 252 253 254 255 256 259 260 261 260 260 257 259 259 261
210 210 216 213 213 218 220 222 220 231 242 247 246 252 249 244 230 232 233 231 228 226 228 231 233 241 245 247 250 253 254 253 254 252 252 257 258 258 257 257 259 261 265
224 215 218 221 219 221 225 228 228 228 236 236 238 243 242 243 241 236 229 229 232 233 233 235 239 241 245 248 248 250 251 251 252 254 257 259 258 259 258 257 260 260 263
234 234 223 226 228 228 231 232 230 234 238 237 240 240 238 241 241 240 243 239 234 235 236 238 241 244 247 248 246 247 250 251 254 255 256 257 258 257 257 258 259 260 261
234 230 226 230 232 235 238 240 241 239 238 243 241 242 244 245 240 242 244 246 246 247 243 239 240 241 243 246 250 251 251 253 254 254 255 256 257 259 260 262 263 264 265
230 232 230 233 238 244 243 244 249 249 247 249 249 249 250 248 243 244 246 249 248 244 248 248 247 247 247 249 251 252 252 254 255 257 258 259 260 262 263 264 265 266 266
229 233 240 244 246 245 255 254 252 252 251 251 252 254 251 252 252 247 247 250 251 251 253 253 247 248 250 252 251 252 252 254 256 257 260 261 260 261 262 264 264 264 265
245 239 240 244 252 251 258 262 259 258 258 258 256 256 256 257 256 255 256 256 253 249 254 254 255 254 255 254 256 257 255 256 255 257 260 260 260 261 262 264 264 265 265
262 263 255 250 251 253 252 254 256 255 256 255 257 258 258 257 258 260 259 258 257 257 257 256 256 256 256 257 258 258 259 259 260 260 261 262 263 263 263 264 266 267 267
260 258 259 261 263 261 262 261 260 258 258 258 261 264 264 261 260 259 258 259 259 258 258 258 259 260 260 259 260 260 260 260 261 261 261 260 261 262 262 263 264 265 266
261 260 262 265 267 270 266 263 264 262 260 259 258 258 261 263 263 263 263 262 261 261 259 259 258 257 258 260 260 261 262 262 262 262 263 264 265 266 267 268 268 268 270
Height
10826 10822 10821 10822 10823 10823 10825 10830 10835 10844 10850 10861 10871 10881 10894 10910 10909 10914 10914 10916 10919 10922 10922 10924 10926 10928 10929 10930 10931 10934 10938 10942 10945 10945 10947 10947 10949 10951 10952 10950 10949 10946 10941
10808 10806 10802 10798 10799 10805 10803 10807 10816 10826 10835 10844 10855 10868 10882 10893 10896 10870 10910 10906 10910 10914 10915 10916 10919 10921 10923 10925 10925 10927 10930 10935 10939 10940 10943 10944 10944 10945 10946 10944 10944 10942 10938
10787 10784 10783 10779 10781 10782 10784 10788 10795 10806 10817 10829 10840 10847 10856 10874 10875 10894 10893 10888 10901 10899 10905 10908 10912 10914 10915 10918 10921 10921 10924 10924 10929 10934 10935 10937 10938 10938 10941 10939 10939 10937 10934
10766 10764 10762 10761 10760 10761 10764 10770 10777 10789 10799 10812 10822 10830 10833 10833 10827 10863 10872 10881 10886 10883 10894 10900 10904 10907 10910 10912 10912 10914 10917 10917 10919 10923 10927 10929 10930 10932 10934 10934 10932 10930 10928
10745 10743 10744 10742 10742 10743 10748 10754 10761 10772 10783 10795 10806 10814 10818 10821 10825 10836 10838 10853 10862 10870 10881 10889 10895 10898 10900 10902 10904 10904 10910 10910 10911 10915 10918 10920 10923 10924 10925 10925 10925 10925 10923
10726 10724 10725 10724 10725 10729 10734 10741 10749 10758 10768 10780 10789 10798 10804 10811 10817 10824 10828 10835 10848 10857 10866 10876 10885 10888 10890 10890 10892 10898 10900 10904 10904 10906 10909 10912 10915 10916 10916 10917 10918 10919 10918
10707 10708 10709 10711 10715 10718 10722 10728 10738 10750 10759 10769 10778 10788 10795 10801 10807 10815 10822 10826 10835 10845 10852 10861 10870 10878 10877 10880 10882 10889 10893 10895 10896 10900 10901 10903 10905 10907 10907 10909 10910 10911 10910
10693 10695 10697 10701 10705 10711 10714 10719 10727 10736 10745 10757 10767 10778 10785 10790 10798 10805 10808 10816 10827 10836 10844 10848 10860 10863 10866 10866 10873 10880 10883 10885 10886 10891 10891 10892 10894 10895 10895 10899 10901 10902 10902
10683 10684 10689 10692 10698 10701 10707 10713 10717 10723 10734 10743 10751 10756 10763 10771 10782 10786 10792 10803 10814 10823 10831 10837 10845 10847 10853 10857 10861 10868 10870 10871 10874 10877 10879 10879 10881 10880 10882 10888 10888 10891 10892
10674 10679 10683 10687 10691 10696 10702 10709 10713 10718 10723 10728 10735 10737 10741 10750 10757 10770 10779 10790 10798 10806 10815 10822 10830 10833 10841 10844 10850 10852 10855 10858 10860 10863 10865 10865 10867 10868 10870 10875 10875 10879 10880
10669 10676 10679 10684 10688 10692 10697 10704 10709 10715 10718 10720 10724 10726 10728 10731 10743 10755 10763 10773 10780 10792 10799 10806 10812 10818 10821 10828 10834 10838 10840 10842 10845 10847 10851 10852 10854 10855 10858 10861 10865 10866 10868
10664 10671 10676 10682 10685 10689 10694 10699 10704 10706 10706 10708 10712 10716 10718 10721 10729 10739 10745 10757 10767 10774 10783 10790 10797 10802 10806 10813 10819 10822 10825 10826 10830 10834 10837 10839 10840 10843 10844 10847 10851 10853 10853
10661 10666 10670 10676 10682 10688 10694 10697 10697 10699 10698 10697 10698 10702 10707 10710 10715 10723 10731 10742 10753 10759 10768 10774 10780 10788 10792 10799 10804 10806 10809 10812 10816 10820 10822 10824 10825 10828 10829 10832 10835 10839 10838
10654 10660 10664 10667 10673 10680 10685 10685 10687 10690 10692 10693 10692 10697 10697 10699 10705 10709 10717 10726 10738 10747 10755 10762 10766 10773 10780 10784 10787 10790 10793 10797 10800 10802 10807 10808 10810 10812 10814 10817 10819 10819 10821
10649 10654 10658 10660 10664 10669 10675 10679 10682 10682 10685 10685 10686 10688 10689 10691 10694 10697 10704 10713 10724 10734 10739 10743 10752 10757 10762 10766 10770 10773 10775 10779 10783 10787 10789 10791 10793 10795 10798 10800 10802 10801 10803
10640 10645 10647 10651 10655 10659 10663 10667 10671 10675 10677 10680 10681 10682 10681 10683 10687 10690 10694 10699 10707 10716 10724 10730 10737 10741 10745 10749 10752 10756 10758 10762 10766 10768 10770 10772 10774 10776 10779 10783 10784 10784 10784
10629 10633 10636 10640 10647 10652 10654 10659 10659 10666 10669 10671 10675 10677 10677 10679 10680 10683 10687 10692 10697 10702 10708 10715 10719 10723 10728 10734 10734 10736 10739 10742 10744 10746 10748 10751 10755 10756 10757 10760 10761 10762 10763
10620 10624 10627 10632 10638 10643 10645 10648 10652 10656 10659 10662 10666 10668 10670 10671 10672 10673 10674 10678 10683 10689 10695 10699 10702 10706 10709 10712 10716 10717 10720 10725 10727 10728 10731 10731 10733 10736 10736 10737 10740 10739 10740
10611 10614 10618 10623 10628 10632 10635 10638 10641 10644 10646 10650 10652 10655 10657 10660 10663 10665 10668 10670 10672 10675 10677 10681 10683 10689 10691 10694 10696 10699 10703 10707 10709 10709 10711 10710 10710 10710 10712 10713 10714 10714 10713
10602 10605 10610 10613 10618 10622 10625 10627 10629 10632 10635 10636 10638 10640 10642 10646 10649 10650 10651 10654 10656 10657 10659 10662 10664 10670 10673 10676 10679 10681 10684 10684 10685 10687 10687 10687 10686 10686 10689 10689 10688 10689 10688
10591 10595 10600 10603 10604 10608 10610 10615 10618 10620 10621 10622 10622 10624 10626 10627 10629 10636 10638 10637 10638 10642 10644 10646 10647 10650 10652 10651 10653 10657 10659 10659 10658 10658 10658 10660 10660 10660 10658 10661 10662 10663 10662
10583 10586 10588 10592 10594 10596 10597 10600 10602 10603 10605 10605 10605 10606 10609 10611 10612 10614 10615 10617 10619 10621 10622 10624 10629 10631 10632 10632 10631 10633 10633 10632 10634 10633 10632 10631 10632 10633 10632 10631 10632 10634 10635
10571 10574 10577 10578 10580 10580 10580 10582 10583 10584 10589 10588 10584 10584 10590 10592 10590 10594 10594 10596 10595 10599 10601 10604 10606 10607 10607 10607 10607 10607 10607 10607 10607 10605 10605 10604 10603 10602 10604 10604 10604 10603 10600
10558 10562 10565 10564 10564 10564 10565 10565 10565 10568 10570 10567 10562 10566 10569 10569 10568 10569 10569 10569 10572 10573 10576 10580 10579 10580 10580 10582 10583 10581 10577 10574 10573 10574 10576 10575 10573 10574 10576 10575 10574 10571 10569
10546 10548 10549 10546 10546 10547 10546 10545 10544 10547 10548 10549 10547 10544 10544 10548 10546 10546 10549 10546 10543 10545 10546 10550 10554 10553 10550 10550 10550 10547 10545 10542 10541 10540 10543 10544 10542 10541 10540 10540 10536 10537 10537
10532 10532 10531 10529 10529 10529 10526 10525 10527 10526 10523 10527 10528 10523 10522 10522 10525 10521 10523 10523 10519 10517 10519 10519 10520 10524 10523 10518 10514 10512 10508 10507 10508 10507 10505 10505 10504 10503 10501 10502 10500 10497 10496